Robstown, TX

10:58 PM CDT on March 22, 2017 (GMT -0500)
Robstown

Weather History for KRBO - February, 2013

Change the Weather History Date:

Wednesday, February 27, 2013

  Actual Average (KCRP) Record (KCRP)
Temperature  
Mean Temperature 60 °F -  
Max Temperature 77 °F 69 °F 96 °F (1954)
Min Temperature 44 °F 50 °F 24 °F (2002)
Degree Days  
Heating Degree Days 4    
Growing Degree Days 10 (Base 50)    
Moisture  
Dew Point 36 °F    
Average Humidity 47    
Maximum Humidity 85    
Minimum Humidity 13    
Precipitation  
Precipitation 0.00 in - - ()
Sea Level Pressure  
Sea Level Pressure 30.03 in    
Wind  
Wind Speed 9 mph (North)    
Max Wind Speed 23 mph    
Max Gust Speed 30 mph    
Visibility 10 miles    
Events      
Averages and records for this station are not official NWS values.
T = Trace of Precipitation, MM = Missing Value Source: NWS Daily Summary

Daily Weather History Graph

Daily Weather History Graph

Search for Another Location

Airport or City:

Trip Planner

Search our weather history database for the weather conditions in past years. The results will help you decide how hot, cold, wet, or windy it might be!

Date:

Astronomy

Feb. 27, 2013 Rise Set
Actual Time 6:56 AM CST 6:30 PM CST
Civil Twilight 6:33 AM CST 6:53 PM CST
Nautical Twilight 6:06 AM CST 7:21 PM CST
Astronomical Twilight 5:39 AM CST 7:48 PM CST
Moon 8:35 PM CST (2/27) 7:47 AM CST (2/27)
Length of Visible Light 12h 20m
Length of Day
11h 33m
Waning Gibbous, 96% of the Moon is Illuminated
Feb 27
Waning Gibbous
Mar 4
Last Quarter
Mar 11
New
Mar 19
First Quarter
Mar 27
Full

Hourly Weather History & Observations

Time (CST) Temp. Windchill Dew Point Humidity Pressure Visibility Wind Dir Wind Speed Gust Speed Precip Events Conditions
12:15 AM 52.3 °F - 44.2 °F 74% 29.92 in 10.0 mi South 5.8 mph - N/A   Clear
12:35 AM 50.9 °F - 42.8 °F 74% 29.91 in 10.0 mi South 5.8 mph - N/A   Clear
12:55 AM 50.9 °F - 42.6 °F 73% 29.92 in 10.0 mi SSW 5.8 mph - N/A   Clear
1:15 AM 50.7 °F - 43.3 °F 76% 29.91 in 10.0 mi South 9.2 mph - N/A   Clear
1:35 AM 51.4 °F - 43.7 °F 75% 29.91 in 10.0 mi South 9.2 mph - N/A   Clear
1:55 AM 51.1 °F - 43.3 °F 75% 29.92 in 10.0 mi South 9.2 mph - N/A   Clear
2:15 AM 51.6 °F - 44.2 °F 76% 29.90 in 10.0 mi South 10.4 mph - N/A   Clear
2:35 AM 50.7 °F - 43.5 °F 76% 29.90 in 10.0 mi South 8.1 mph - N/A   Clear
2:55 AM 49.3 °F - 42.4 °F 77% 29.90 in 10.0 mi South 5.8 mph - N/A   Clear
3:15 AM 48.2 °F - 41.5 °F 78% 29.90 in 10.0 mi South 4.6 mph - N/A   Clear
3:35 AM 48.2 °F - 41.9 °F 79% 29.89 in 10.0 mi SSE 4.6 mph - N/A   Clear
3:55 AM 48.0 °F - 42.8 °F 82% 29.89 in 10.0 mi South 6.9 mph - N/A   Clear
4:15 AM 48.0 °F - 43.3 °F 84% 29.88 in 10.0 mi SSE 8.1 mph - N/A   Clear
4:35 AM 47.7 °F - 42.6 °F 83% 29.89 in 10.0 mi South 4.6 mph - N/A   Clear
4:55 AM 47.5 °F - 43.2 °F 85% 29.90 in 10.0 mi Calm Calm - N/A   Clear
5:15 AM 48.0 °F - 43.2 °F 83% 29.91 in 10.0 mi Calm Calm - N/A   Clear
5:55 AM 46.0 °F - 41.4 °F 84% 29.92 in 10.0 mi Calm Calm - N/A   Clear
6:35 AM 45.1 °F 42.0 °F 39.9 °F 82% 29.94 in 10.0 mi NNW 5.8 mph - N/A   Clear
6:55 AM 44.6 °F 40.7 °F 40.1 °F 84% 29.96 in 10.0 mi North 6.9 mph - N/A   Clear
7:15 AM 44.8 °F 41.6 °F 40.6 °F 85% 29.97 in 10.0 mi North 5.8 mph - N/A   Clear
7:35 AM 46.9 °F - 41.9 °F 83% 29.99 in 10.0 mi North 8.1 mph - N/A   Clear
7:55 AM 50.2 °F - 43.7 °F 78% 30.00 in 10.0 mi North 5.8 mph - N/A   Clear
8:15 AM 53.6 °F - 45.5 °F 74% 30.01 in 10.0 mi North 4.6 mph - N/A   Clear
8:35 AM 56.3 °F - 46.6 °F 70% 30.05 in 10.0 mi NW 20.7 mph 27.6 mph N/A   Clear
8:55 AM 58.1 °F - 46.2 °F 65% 30.06 in 10.0 mi NW 15.0 mph 24.2 mph N/A   Clear
9:15 AM 60.6 °F - 47.1 °F 61% 30.06 in 10.0 mi NW 11.5 mph - N/A   Clear
9:35 AM 63.3 °F - 49.3 °F 60% 30.07 in 10.0 mi NNW 10.4 mph - N/A   Clear
9:55 AM 64.8 °F - 50.0 °F 59% 30.07 in 10.0 mi NNW 10.4 mph 16.1 mph N/A   Clear
10:15 AM 66.2 °F - 49.3 °F 54% 30.07 in 10.0 mi NW 9.2 mph - N/A   Clear
10:35 AM 67.8 °F - 48.4 °F 50% 30.07 in 10.0 mi NW 9.2 mph 17.3 mph N/A   Clear
10:55 AM 68.7 °F - 46.8 °F 45% 30.07 in 10.0 mi NW 11.5 mph 17.3 mph N/A   Clear
11:15 AM 69.1 °F - 43.7 °F 40% 30.07 in 10.0 mi NW 12.7 mph 19.6 mph N/A   Clear
11:35 AM 70.3 °F - 42.1 °F 36% 30.07 in 10.0 mi NNW 12.7 mph 19.6 mph N/A   Clear
11:55 AM 72.5 °F - 38.7 °F 29% 30.07 in 10.0 mi NNW 13.8 mph - N/A   Clear
12:15 PM 73.2 °F - 38.3 °F 28% 30.06 in 10.0 mi NNW 17.3 mph 21.9 mph N/A   Clear
12:35 PM 75.0 °F - 36.9 °F 25% 30.05 in 10.0 mi North 20.7 mph 26.5 mph N/A   Clear
12:55 PM 76.3 °F - 33.8 °F 21% 30.04 in 10.0 mi NNW 23.0 mph 26.5 mph N/A   Clear
1:15 PM 77.2 °F - 31.8 °F 19% 30.04 in 10.0 mi North 21.9 mph 28.8 mph N/A   Clear
1:35 PM 77.5 °F - 23.4 °F 13% 30.04 in 10.0 mi North 20.7 mph 28.8 mph N/A   Clear
1:55 PM 77.5 °F - 22.8 °F 13% 30.04 in 10.0 mi North 18.4 mph 29.9 mph N/A   Clear
2:35 PM 77.2 °F - 23.7 °F 14% 30.03 in 10.0 mi North 18.4 mph 28.8 mph N/A   Clear
2:55 PM 76.5 °F - 24.1 °F 14% 30.03 in 10.0 mi NNW 23.0 mph 27.6 mph N/A   Clear
3:15 PM 76.5 °F - 23.4 °F 14% 30.04 in 10.0 mi North 20.7 mph 27.6 mph N/A   Clear
3:35 PM 75.4 °F - 24.1 °F 15% 30.03 in 10.0 mi North 19.6 mph 29.9 mph N/A   Clear
3:55 PM 75.2 °F - 23.7 °F 15% 30.04 in 10.0 mi North 18.4 mph 28.8 mph N/A   Clear
4:15 PM 74.5 °F - 26.4 °F 17% 30.04 in 10.0 mi North 18.4 mph 26.5 mph N/A   Clear
4:35 PM 73.6 °F - 27.3 °F 18% 30.05 in 10.0 mi North 18.4 mph 24.2 mph N/A   Clear
4:55 PM 73.0 °F - 27.7 °F 19% 30.05 in 10.0 mi North 17.3 mph - N/A   Clear
5:15 PM 72.7 °F - 26.2 °F 18% 30.07 in 10.0 mi NNW 18.4 mph 24.2 mph N/A   Clear
5:35 PM 71.6 °F - 27.3 °F 19% 30.06 in 10.0 mi North 17.3 mph 26.5 mph N/A   Clear
5:55 PM 70.2 °F - 27.7 °F 21% 30.07 in 10.0 mi North 15.0 mph 20.7 mph N/A   Clear
6:15 PM 68.9 °F - 27.7 °F 21% 30.08 in 10.0 mi North 10.4 mph - N/A   Clear
6:35 PM 67.6 °F - 27.9 °F 23% 30.09 in 10.0 mi North 11.5 mph 16.1 mph N/A   Clear
6:55 PM 65.8 °F - 27.0 °F 23% 30.11 in 10.0 mi North 9.2 mph - N/A   Clear
7:15 PM 64.6 °F - 25.5 °F 23% 30.12 in 10.0 mi North 11.5 mph - N/A   Clear
7:35 PM 63.7 °F - 25.2 °F 23% 30.12 in 10.0 mi North 11.5 mph - N/A   Clear
8:15 PM 60.8 °F - 25.7 °F 26% 30.15 in 10.0 mi North 8.1 mph - N/A   Clear
8:55 PM 59.9 °F - 26.1 °F 27% 30.16 in 10.0 mi NNE 6.9 mph - N/A   Clear
9:15 PM 58.6 °F - 26.1 °F 29% 30.17 in 10.0 mi North 5.8 mph - N/A   Clear
9:35 PM 55.9 °F - 25.7 °F 31% 30.18 in 10.0 mi NNE 5.8 mph - N/A   Clear
9:55 PM 57.6 °F - 25.5 °F 29% 30.19 in 10.0 mi NNE 9.2 mph - N/A   Clear
10:15 PM 57.4 °F - 25.5 °F 29% 30.19 in 10.0 mi NNE 8.1 mph - N/A   Clear
10:35 PM 57.2 °F - 26.1 °F 30% 30.19 in 10.0 mi NNE 8.1 mph - N/A   Clear
10:55 PM 56.7 °F - 26.2 °F 31% 30.19 in 10.0 mi NNE 8.1 mph - N/A   Clear
11:15 PM 56.1 °F - 26.6 °F 32% 30.19 in 10.0 mi NE 6.9 mph - N/A   Clear